[[{"header":{"parameterUnit":"m.s-1","parameterCategory":1,"la1":30.2991,"la2":30.254,"lo1":-89.0895,"lo2":-89.0444,"dy":0.0017,"dx":0.0017,"nx":28,"ny":28,"refTime":"2025-12-17T03:00:00:Z","depth":0,"parameterNumber":2,"parameterNumberName":"U-component_of_WINDS"},"data":[0,0,0,0,0,0,0,0,0,0,0,0,0,0,0,0,0,0,0,0,0,0,0,0,0,0,0,0,0,0,0,0,0,0,0,0,0,0,0,0,0,0,0,0,0,0,0,0,0,0,0,0,0,0,0,0,0,0,-6.8723,-6.8722,0,-6.8614,-6.8613,-6.8612,-6.8432,-6.8429,-6.8426,-6.8423,-6.8312,-6.8312,-6.8312,0,0,0,0,0,0,0,0,0,0,0,0,0,-6.8777,-6.8777,-6.8723,-6.8722,-6.872,-6.8615,-6.8613,-6.8612,-6.8433,-6.8429,-6.8425,-6.8421,-6.8311,-6.8312,-6.8312,0,0,0,0,0,0,0,0,0,0,0,0,0,-6.872,-6.8777,-6.8723,-6.8618,-6.8608,-6.8615,-6.8613,-6.8611,-6.8434,-6.8429,-6.8424,-6.8419,-6.8311,-6.8312,-6.8312,-6.8412,0,0,-6.8312,-6.8312,0,0,0,0,0,0,0,0,-6.8723,-6.8718,-6.8635,-6.8626,-6.8614,-6.8532,-6.8591,-6.8545,-6.8435,-6.85,-6.8422,-6.8417,-6.8389,-6.8382,-6.8373,-6.8407,-6.8402,-6.8312,-6.8313,-6.8313,-6.8313,0,0,0,0,0,0,0,-6.8728,-6.8722,-6.868,-6.8634,-6.8621,-6.8577,-6.8564,-6.8582,-6.8474,-6.8494,-6.8481,-6.847,-6.8382,-6.8373,-6.8369,-6.8401,-6.8312,-6.8313,-6.8313,-6.8313,-6.8513,-6.8517,0,0,0,0,0,0,-6.8747,-6.8726,-6.8683,-6.8677,-6.8658,-6.8581,-6.8565,-6.8563,-6.8473,-6.8454,-6.8475,-6.8462,-6.8375,-6.8369,-6.8364,-6.8475,-6.8313,-6.8313,-6.8313,-6.8507,-6.8514,-6.8519,0,0,0,0,0,0,-6.8749,-6.8745,-6.8688,-6.8698,-6.8687,-6.8585,-6.8584,-6.8564,-6.8554,-6.8458,-6.8438,-6.8485,-6.8371,-6.8364,-6.8402,-6.8469,-6.8313,-6.8313,-6.8501,-6.8509,-6.8516,-6.8699,0,0,0,0,0,0,-6.8751,-6.8746,-6.8783,-6.87,-6.8687,-6.8727,-6.8588,-6.8565,-6.8555,-6.8538,-6.8463,-6.8446,-6.8367,-6.8403,-6.8402,-6.8466,-6.8313,-6.8495,-6.8505,-6.8514,-6.8686,-6.8712,-6.8734,0,0,0,0,0,-6.8754,-6.8839,-6.8786,-6.8782,-6.8731,-6.8731,-6.8724,-6.8631,-6.8561,-6.8597,-6.8536,-6.8448,-6.8463,-6.8408,-6.8406,-6.8471,-6.849,-6.8502,-6.8513,-6.8676,-6.8707,-6.8733,0,0,0,0,0,0,-6.8931,-6.8826,-6.8766,-6.8826,-6.8789,-6.8701,-6.8743,-6.8667,-6.8649,-6.8634,-6.852,-6.8505,-6.8557,-6.8518,-6.8459,-6.8564,-6.8463,-6.8475,-6.8587,-6.8616,-6.8639,-6.8646,-6.8313,0,0,0,0,0,-6.8978,-6.8987,-6.8894,-6.8957,-6.8941,-6.8847,-6.8843,-6.8775,-6.8732,-6.8715,-6.8656,-6.8618,-6.8614,-6.8613,-6.8604,-6.8681,-6.8662,-6.8725,-6.8749,-6.8769,-6.878,-6.8818,-6.8844,-6.8558,-6.8558,-6.8557,0,0,-6.9074,-6.9017,-6.9029,-6.8991,-6.8954,-6.8966,-6.8834,-6.8852,-6.8859,-6.8718,-6.8749,-6.8706,-6.8655,-6.8714,-6.8736,-6.8683,-6.8856,-6.8784,-6.8801,-6.88,-6.8832,-6.886,-6.8884,-6.8566,-6.8564,-6.8563,0,0,-6.9253,-6.9212,-6.9259,-6.9225,-6.9171,-6.9108,-6.9121,-6.9044,-6.9009,-6.904,-6.8934,-6.8942,-6.8937,-6.8906,-6.8889,-6.9061,-6.8979,-6.9062,-6.9184,-6.9223,-6.9245,-6.9265,-6.9324,-6.9347,-6.9073,-6.9074,-6.9074,0,-6.9378,-6.9391,-6.9293,-6.9317,-6.9304,-6.9178,-6.9225,-6.9197,-6.9144,-6.9138,-6.9079,-6.9071,-6.9029,-6.9077,-6.912,-6.9111,-6.9121,-6.9068,-6.925,-6.9268,-6.9285,-6.9341,-6.9364,-6.9084,-6.9083,-6.9082,-6.9081,0,-6.9547,-6.9558,-6.9603,-6.9555,-6.9547,-6.9583,-6.9491,-6.9495,-6.943,-6.9373,-6.9406,-6.9351,-6.9329,-6.9336,-6.9272,-6.9377,-6.9345,-6.9271,-6.9165,-6.9324,-6.9374,-6.9395,-6.9099,-6.9095,-6.9092,-6.9089,0,0,-6.9831,-6.973,-6.9748,-6.9725,-6.9658,-6.9665,-6.9697,-6.9675,-6.968,-6.9649,-6.9672,-6.9673,-6.9604,-6.9585,-6.9517,-6.9552,-6.969,-6.9472,-6.9469,-6.9513,-6.98,-6.9855,-6.9881,-6.9637,-6.9641,-6.9644,-6.9804,0,-6.9994,-7.0041,-6.9955,-7.0022,-7.0031,-6.9913,-6.9941,-6.9904,-6.9853,-6.9854,-6.9798,-6.9799,-6.9709,-6.9697,-6.9726,-6.9667,-6.9746,-6.9655,-6.9656,-6.9657,-6.9669,-6.9908,-6.9965,-7.0118,-6.9823,-6.9827,-6.9829,0,-7.0189,-7.0168,-7.0237,-7.0167,-7.0167,-7.0194,-7.0167,-7.017,-7.0126,-7.0087,-7.0069,-6.9989,-7.0016,-6.9918,-6.9953,-6.9893,-6.9889,-6.9861,-6.9865,-6.9858,-6.975,-6.9905,-7.0165,-7.0188,-6.9859,-6.9857,-6.9855,0,-7.0387,-7.0376,-7.0415,-7.04,-7.032,-7.0341,-7.0309,-7.026,-7.0253,-7.0232,-7.0226,-7.0209,-7.0198,-7.0186,-7.0104,-7.0041,-7.0149,-7.0044,-7.0116,-7.0119,-7.0141,-7.014,-7.0401,-7.0145,-7.0144,-7.0144,-7.0143,0,-7.0576,-7.0622,-7.0503,-7.0527,-7.0575,-7.0478,-7.0529,-7.0485,-7.0444,-7.0457,-7.0356,-7.0371,-7.0264,-7.0268,-7.0204,-7.0242,-7.0239,-7.0208,-7.0189,-7.0215,-7.0219,-7.0208,-7.0194,-7.015,-7.0149,-7.0147,-7.0146,0,-7.0803,-7.0725,-7.076,-7.0683,-7.0665,-7.0704,-7.0638,-7.0657,-7.0602,-7.0621,-7.062,-7.0532,-7.0532,-7.045,-7.0433,-7.039,-7.0454,-7.0418,-7.0469,-7.0456,-7.0532,-7.0525,-7.0793,-7.0822,-7.0551,-7.0553,-7.0556,0,-7.0927,-7.0959,-7.0887,-7.0888,-7.0861,-7.0866,-7.0859,-7.0766,-7.0763,-7.0717,-7.0742,-7.0734,-7.0721,-7.0726,-7.0661,-7.0648,-7.0609,-7.0704,-7.0606,-7.0631,-7.0608,-7.0605,-7.0608,-7.0724,-7.0727,-7.073,-7.0732,0,-7.1154,-7.1115,-7.1108,-7.109,-7.1084,-7.1065,-7.1039,-7.1047,-7.0945,-7.0947,-7.0945,-7.0936,-7.092,-7.0912,-7.0888,-7.0854,-7.0777,-7.0765,-7.078,-7.0804,-7.0831,-7.0815,-7.0522,-7.0758,-7.0755,-7.0753,-7.0752,-7.0751,-7.1331,-7.1355,-7.1307,-7.1304,-7.1275,-7.1254,-7.1269,-7.1216,-7.1213,-7.1192,-7.1138,-7.1146,-7.1103,-7.1061,-7.1036,-7.1041,-7.0993,-7.1016,-7.1021,-7.1027,-7.1041,-7.0834,-7.1036,-7.1036,-7.1035,-7.1034,-7.1034,0,-7.1551,-7.1516,-7.1514,-7.1481,-7.148,-7.1409,-7.1377,-7.138,-7.1388,-7.1355,-7.1346,-7.1345,-7.1338,-7.1275,-7.1261,-7.1277,-7.1241,-7.1276,-7.1272,-7.1265,-7.1086,-7.1072,-7.1305,-7.1305,-7.1305,-7.1305,-7.1305,-7.1305,-7.1665,-7.1701,-7.1657,-7.1679,-7.1643,-7.1649,-7.1637,-7.1618,-7.1591,-7.1594,-7.1589,-7.1548,-7.1503,-7.1485,-7.1476,-7.1457,-7.1456,-7.1503,-7.1472,-7.1305,-7.1278,-7.1253,-7.124,-7.1504,-7.1504,-7.1651,-7.1652,-7.1653]},{"header":{"parameterUnit":"m.s-1","parameterCategory":1,"la1":30.2991,"la2":30.254,"lo1":-89.0895,"lo2":-89.0444,"dy":0.0017,"dx":0.0017,"nx":28,"ny":28,"refTime":"2025-12-17T03:00:00:Z","depth":0,"parameterNumber":3,"parameterNumberName":"V-component_of_WINDS"},"data":[0,0,0,0,0,0,0,0,0,0,0,0,0,0,0,0,0,0,0,0,0,0,0,0,0,0,0,0,0,0,0,0,0,0,0,0,0,0,0,0,0,0,0,0,0,0,0,0,0,0,0,0,0,0,0,0,0,0,1.0771,1.077,0,1.0686,1.0685,1.0684,1.0677,1.0678,1.0679,1.068,1.0589,1.0586,1.0583,0,0,0,0,0,0,0,0,0,0,0,0,0,1.0927,1.0924,1.0771,1.077,1.0769,1.0686,1.0685,1.0684,1.0677,1.0678,1.068,1.0681,1.059,1.0587,1.0583,0,0,0,0,0,0,0,0,0,0,0,0,0,1.0852,1.0923,1.0772,1.0756,1.0754,1.0687,1.0685,1.0684,1.0677,1.0678,1.068,1.0681,1.0592,1.0587,1.0582,1.0524,0,0,1.0567,1.0565,0,0,0,0,0,0,0,0,1.0857,1.0847,1.0759,1.0757,1.0754,1.0694,1.0707,1.063,1.0677,1.0706,1.068,1.0682,1.0623,1.0615,1.0596,1.0519,1.0515,1.0567,1.0564,1.0561,1.056,0,0,0,0,0,0,0,1.0862,1.085,1.0738,1.0758,1.0755,1.0753,1.0744,1.0692,1.0657,1.0704,1.0703,1.0693,1.0622,1.0601,1.0594,1.0514,1.0567,1.0562,1.0559,1.0557,1.0389,1.0387,0,0,0,0,0,0,1.087,1.0855,1.074,1.0735,1.081,1.0749,1.0739,1.0712,1.0658,1.0651,1.0692,1.0693,1.0609,1.06,1.0591,1.0521,1.0561,1.0557,1.0554,1.039,1.0389,1.0387,0,0,0,0,0,0,1.0874,1.086,1.0744,1.0795,1.078,1.0745,1.0715,1.0709,1.0689,1.0649,1.0643,1.0677,1.061,1.0598,1.0542,1.0518,1.0555,1.055,1.0392,1.039,1.0388,1.038,0,0,0,0,0,0,1.0878,1.0861,1.0839,1.0794,1.0777,1.0696,1.0713,1.0707,1.0681,1.0681,1.0634,1.0627,1.061,1.0549,1.0537,1.0512,1.0546,1.0394,1.0391,1.0388,1.0383,1.0378,1.0374,0,0,0,0,0,1.0884,1.0838,1.0837,1.0824,1.0748,1.0695,1.0685,1.0666,1.0679,1.0656,1.0632,1.0629,1.0523,1.0543,1.0529,1.0503,1.0395,1.0392,1.0389,1.0384,1.0379,1.0375,0,0,0,0,0,0,1.0878,1.0832,1.0831,1.077,1.0737,1.0694,1.0664,1.0661,1.0622,1.0624,1.0602,1.0591,1.0537,1.0514,1.0537,1.0445,1.046,1.0454,1.0462,1.0457,1.0453,1.0459,1.0542,0,0,0,0,0,1.0871,1.0832,1.0793,1.0743,1.0727,1.0698,1.0674,1.0664,1.0628,1.0613,1.0584,1.0548,1.0508,1.0481,1.044,1.038,1.037,1.0355,1.0351,1.0348,1.0342,1.0311,1.0305,1.0376,1.0376,1.0376,0,0,1.0853,1.0823,1.0799,1.0741,1.0714,1.0675,1.0686,1.0643,1.0614,1.0606,1.0552,1.053,1.0489,1.0431,1.0404,1.0411,1.0321,1.0343,1.0341,1.0337,1.0307,1.0301,1.0295,1.0373,1.0374,1.0374,0,0,1.0802,1.0774,1.0731,1.0705,1.0665,1.0647,1.0637,1.0595,1.0581,1.0527,1.0522,1.0486,1.0415,1.0388,1.0364,1.0307,1.0304,1.0294,1.0272,1.0243,1.0237,1.0232,1.0214,1.0207,1.0289,1.0289,1.0289,0,1.0785,1.0725,1.0709,1.0667,1.0643,1.0637,1.0594,1.0568,1.0517,1.05,1.0508,1.0422,1.0394,1.0331,1.0318,1.0298,1.0287,1.0299,1.024,1.0234,1.0229,1.0211,1.0204,1.0288,1.0288,1.0288,1.0288,0,1.0708,1.0667,1.0637,1.059,1.0562,1.052,1.0498,1.0471,1.0464,1.0446,1.0392,1.0359,1.0313,1.0298,1.0288,1.0234,1.024,1.0244,1.0259,1.0222,1.0205,1.0198,1.0287,1.0287,1.0288,1.0288,0,0,1.0648,1.0596,1.0585,1.0566,1.0523,1.0491,1.0449,1.0407,1.0386,1.0351,1.0316,1.0259,1.0264,1.0237,1.0225,1.0199,1.0159,1.0207,1.0206,1.0201,1.01,1.0098,1.009,1.0157,1.0156,1.0155,1.0104,0,1.0593,1.052,1.0506,1.0442,1.0406,1.0401,1.0365,1.0336,1.0318,1.0285,1.0265,1.0225,1.0233,1.0218,1.0192,1.0169,1.0139,1.0173,1.0125,1.0124,1.0136,1.0081,1.0077,1.0031,1.0097,1.0096,1.0095,0,1.0518,1.0485,1.0419,1.0385,1.0369,1.0336,1.0298,1.0266,1.0233,1.0222,1.0195,1.0187,1.0145,1.0162,1.0104,1.0128,1.0108,1.0094,1.0092,1.0087,1.0107,1.0075,1.0015,1.0009,1.0084,1.0085,1.0085,0,1.0485,1.0423,1.0376,1.0359,1.0317,1.0295,1.0276,1.0245,1.0221,1.0188,1.0173,1.0134,1.0113,1.0083,1.0066,1.008,1.001,1.0025,1.0001,1.0001,0.9986,0.9987,0.9923,0.9971,0.9972,0.9972,0.9972,0,1.0425,1.0385,1.0361,1.0332,1.0287,1.0272,1.0229,1.021,1.0183,1.0151,1.0144,1.0114,1.0092,1.0059,1.0045,1.0001,0.9991,0.9982,0.9978,0.9983,0.9984,0.9969,0.9972,0.997,0.997,0.9971,0.9971,0,1.0379,1.0361,1.031,1.0276,1.0266,1.0235,1.0206,1.0178,1.0162,1.0122,1.0112,1.0086,1.0047,1.0028,0.9978,0.9969,0.992,0.9918,0.9932,0.993,0.9908,0.9911,0.9832,0.9822,0.9876,0.9876,0.9875,0,1.0342,1.0312,1.0276,1.0255,1.0237,1.0202,1.0179,1.0164,1.014,1.0103,1.008,1.0042,1.001,0.9949,0.9926,0.9889,0.9887,0.9862,0.9881,0.9888,0.9889,0.9891,0.9889,0.9859,0.9858,0.9858,0.9857,0,1.028,1.0274,1.0242,1.0208,1.0181,1.0153,1.0125,1.0108,1.0088,1.0062,1.0024,1.0,0.9952,0.9915,0.9877,0.9858,0.9855,0.9852,0.9845,0.9849,0.9859,0.9855,0.9924,0.9854,0.9854,0.9854,0.9855,0.9855,1.0239,1.0213,1.0185,1.015,1.0128,1.0103,1.0077,1.0059,1.0027,0.9988,0.9981,0.9941,0.9911,0.9861,0.9841,0.981,0.9815,0.9804,0.9801,0.9799,0.9799,0.9864,0.9803,0.9803,0.9803,0.9803,0.9803,0,1.0178,1.016,1.0129,1.0092,1.0065,1.0067,1.0037,1.0014,0.998,0.9953,0.9924,0.9881,0.9846,0.9821,0.9786,0.9766,0.9763,0.9757,0.9758,0.9755,0.9795,0.9806,0.9759,0.9759,0.9759,0.9759,0.9759,0.9759,1.0143,1.01,1.0091,1.0038,1.0021,0.9983,0.9966,0.9944,0.9923,0.9877,0.9848,0.9833,0.9808,0.9771,0.9739,0.9733,0.9721,0.9714,0.9708,0.9747,0.9751,0.9756,0.9766,0.9712,0.9711,0.967,0.967,0.967]}]]